TEIKYOSAT-4 (OORURI) (49396 NORAD) Tracking and Keplerian Element Data

This shows tracking and keplerian element data for the satellite.

Feedback or suggestion? Click here.




ElementValue
Catalog49396
NameTEIKYOSAT-4 (OORURI)
Epoch Orbit1017
Epoch Day15.91002062
Epoch Year2022
RAAN78.5341
Inclination97.5537
Eccentricity0.0019251
Argument of Perigee47.5512
Mean Anonmoly312.7336
Mean Motion15.00301803
Decay Rate9.67E-06
L11 49396U 21102B 22015.91002062 .00000967 00000+0 81553-4 0 9994
L22 49396 97.5537 78.5341 0019251 47.5512 312.7336 15.00301803 10174

Live tracking and technical data element details for TEIKYOSAT-4 (OORURI) (NORAD 49396). TEIKYOSAT-4 (OORURI) can be tracked NOW for your location showing map with azimuth and elevation plus other details from your city location.

Track the satellite on the map from your city or location and see movement details for azimuth, elevation, latitude, longitude, range, height, and movement on the map or in text.







IsCatalogInMostPopularTable: catalog: 49396, numindb: 7
Update: records affected: 1



GetName: 49396 TEIKYOSAT-4 (OORURI)

Hit Count: updated at: Thu, 20 Jan 2022 17:45:30 GMT